Location: Mahannah Oil Field
(37.4664°N, 96.6003°W)
Time: 01:42:03
(UTC+00:00)

Tiros 1 despin weight - Pass Details

Date: 28 January 2021
Orbit: 593 x 642 km, 48.2° (Epoch: 25 February)

Event Time Altitude Azimuth Distance (km) Brightness Sun altitude
Rises 17:40:23 0° 208° (SSW) 2,915 ? 32.8°
Reaches altitude 10° 17:42:53 10° 199° (SSW) 2,004 ? 33.0°
Maximum altitude 17:46:59 32° 136° (SE) 1,080 ? 33.2°
Drops below altitude 10° 17:51:03 10° 74° (ENE) 1,987 ? 33.4°
Sets 17:53:31 0° 64° (ENE) 2,887 ? 33.5°
